DW0494 Weather Reports


Display with metric or nautical units.
time (UTC)temp
F
wind
direction
speed
MPH
gust
MPH
rain 1hr
in
rain 24hr
in
rain mn
in
humidity
%
barometer
mb
20260506071404 72 314 0.0 2.0 0.00 0.00 0.00 62 1019.1
20260506070404 72 247 1.0 1.0 0.00 0.00 0.00 61 1019.2
20260506062404 69 231 1.0 3.0 0.00 0.00 0.00 61 1019.4
20260506061903 69 209 0.0 2.0 0.00 0.00 0.00 61 1019.4
20260506060905 68 218 0.0 1.0 0.00 0.00 0.00 64 1019.4
20260506060403 68 206 0.0 2.0 0.00 0.00 0.00 65 1019.3
20260506050905 69 163 0.0 0.0 0.00 0.00 0.00 62 1019.3
20260506050403 69 163 0.0 0.0 0.00 0.00 0.00 62 1019.2
20260506044903 65 163 0.0 1.0 0.00 0.00 0.00 67 1019.2
20260506044404 64 46 0.0 1.0 0.00 0.00 0.00 67 1019.2
20260506043905 64 42 0.0 0.0 0.00 0.00 0.00 67 1019.1
20260506043404 64 42 0.0 0.0 0.00 0.00 0.00 69 1019.0
20260506042904 63 42 0.0 0.0 0.00 0.00 0.00 71 1019.0
20260506042404 62 42 0.0 0.0 0.00 0.00 0.00 72 1018.9
20260506041906 61 42 0.0 0.0 0.00 0.00 0.00 73 1018.8
20260506041403 60 42 0.0 0.0 0.00 0.00 0.00 74 1018.7
20260506040903 59 42 0.0 0.0 0.00 0.00 0.00 75 1018.7
20260506040403 57 42 0.0 1.0 0.00 0.00 0.00 77 1018.7
20260506035903 56 42 0.0 1.0 0.00 0.00 0.00 76 1018.6
20260506035403 56 42 0.0 2.0 0.00 0.00 0.00 76 1018.6
20260506034903 57 42 0.0 2.0 0.00 0.00 0.00 76 1018.5
20260506033405 56 41 0.0 3.0 0.00 0.00 0.00 76 1018.6
20260506032404 56 32 1.0 2.0 0.00 0.00 0.00 77 1018.5
20260506031905 55 30 1.0 2.0 0.00 0.00 0.00 77 1018.5
20260506030903 55 24 0.0 2.0 0.00 0.00 0.00 76 1018.5
20260506030404 55 23 1.0 2.0 0.00 0.00 0.00 76 1018.5
20260506025905 55 30 1.0 2.0 0.00 0.00 0.00 76 1018.4
20260506025403 55 59 0.0 1.0 0.00 0.00 0.00 76 1018.4
20260506024405 55 59 0.0 0.0 0.00 0.00 0.00 76 1018.5
20260506023906 55 58 0.0 0.0 0.00 0.00 0.00 76 1018.5
20260506023404 56 58 0.0 0.0 0.00 0.00 0.00 75 1018.5
20260506022906 56 58 0.0 0.0 0.00 0.00 0.00 75 1018.6
20260506022404 55 58 0.0 0.0 0.00 0.00 0.00 76 1018.6
20260506021904 55 58 0.0 0.0 0.00 0.00 0.00 76 1018.7
20260506021405 55 59 0.0 0.0 0.00 0.00 0.00 76 1018.6
20260506020404 55 59 0.0 0.0 0.00 0.00 0.00 76 1018.5
20260506015904 55 59 0.0 0.0 0.00 0.00 0.00 76 1018.5
20260506015405 55 59 0.0 0.0 0.00 0.00 0.00 77 1018.5
20260506014903 56 59 0.0 2.0 0.00 0.00 0.00 76 1018.5
20260506014403 56 59 0.0 2.0 0.00 0.00 0.00 76 1018.4
20260506013904 56 51 0.0 3.0 0.00 0.00 0.00 76 1018.4
20260506013403 56 50 2.0 3.0 0.00 0.00 0.00 76 1018.4
20260506012905 56 48 1.0 3.0 0.00 0.00 0.00 76 1018.3
20260506011904 56 53 1.0 2.0 0.00 0.00 0.00 77 1018.4
20260506011404 56 45 0.0 1.0 0.00 0.00 0.00 77 1018.4
20260506010404 56 45 0.0 1.0 0.00 0.00 0.00 76 1018.3
20260506005905 56 45 0.0 0.0 0.00 0.00 0.00 76 1018.4
20260506004916 57 45 0.0 1.0 0.00 0.00 0.00 71 1018.3
20260506004404 57 45 0.0 0.0 0.00 0.00 0.00 71 1018.3
20260506003905 57 45 0.0 0.0 0.00 0.00 0.00 70 1018.3
20260506003405 57 45 0.0 1.0 0.00 0.00 0.00 69 1018.2
20260506002904 57 45 0.0 1.0 0.00 0.00 0.00 67 1018.3
20260506002404 58 45 0.0 1.0 0.00 0.00 0.00 67 1018.3
20260506001904 59 45 0.0 1.0 0.00 0.00 0.00 65 1018.2
20260506001404 59 45 0.0 1.0 0.00 0.00 0.00 64 1018.1
20260506000404 61 44 0.0 0.0 0.00 0.00 0.00 61 1018.2
20260505235405 61 44 0.0 2.0 0.00 0.00 0.00 59 1018.2
20260505234904 61 45 1.0 2.0 0.00 0.00 0.00 59 1018.1
20260505234404 61 46 1.0 2.0 0.00 0.00 0.00 60 1018.1
20260505233904 61 46 1.0 2.0 0.00 0.00 0.00 60 1018.1
20260505233405 61 33 1.0 2.0 0.00 0.00 0.00 60 1018.1
20260505232905 61 37 1.0 3.0 0.00 0.00 0.00 59 1018.1
20260505232404 62 30 1.0 3.0 0.00 0.00 0.00 58 1018.1
20260505231403 62 44 1.0 2.0 0.00 0.00 0.00 59 1018.1
20260505230404 62 49 0.0 2.0 0.00 0.00 0.00 60 1018.1
20260505225906 62 35 1.0 3.0 0.00 0.00 0.00 59 1018.1
20260505225406 62 26 1.0 3.0 0.00 0.00 0.00 60 1018.1
20260505224903 62 36 1.0 3.0 0.00 0.00 0.00 60 1018.1
20260505224403 62 27 2.0 3.0 0.00 0.00 0.00 60 1018.2
20260505223905 62 69 1.0 3.0 0.00 0.00 0.00 60 1018.3
20260505223403 62 53 1.0 3.0 0.00 0.00 0.00 59 1018.2
20260505222904 62 60 1.0 3.0 0.00 0.00 0.00 60 1018.2
20260505222404 62 45 2.0 3.0 0.00 0.00 0.00 60 1018.2
20260505221904 62 46 1.0 2.0 0.00 0.00 0.00 60 1018.2
20260505221404 62 47 1.0 3.0 0.00 0.00 0.00 60 1018.2
20260505220906 62 47 0.0 3.0 0.00 0.00 0.00 61 1018.2
20260505220406 62 40 0.0 3.0 0.00 0.00 0.00 62 1018.1
20260505215905 62 45 1.0 3.0 0.00 0.00 0.00 62 1018.0
20260505215405 62 44 0.0 2.0 0.00 0.00 0.00 62 1018.1
20260505214904 62 38 1.0 2.0 0.00 0.00 0.00 62 1018.1
20260505214406 61 333 0.0 0.0 0.00 0.00 0.00 63 1018.1
20260505213904 61 333 0.0 0.0 0.00 0.00 0.00 64 1018.1
20260505213404 61 333 0.0 1.0 0.00 0.00 0.00 63 1018.0
20260505212906 62 244 0.0 1.0 0.00 0.00 0.00 62 1018.1
20260505212405 61 244 0.0 1.0 0.00 0.00 0.00 61 1018.1
20260505211904 61 295 0.0 1.0 0.00 0.00 0.00 60 1018.1
20260505211405 62 261 0.0 0.0 0.00 0.00 0.00 60 1018.0
20260505210904 62 261 0.0 0.0 0.00 0.00 0.00 59 1018.0
20260505210404 62 260 0.0 0.0 0.00 0.00 0.00 58 1017.9
20260505205905 63 261 0.0 1.0 0.00 0.00 0.00 57 1017.8
20260505205403 63 261 0.0 1.0 0.00 0.00 0.00 56 1017.8
20260505204903 63 19 0.0 2.0 0.00 0.00 0.00 56 1017.8
20260505204404 63 18 0.0 3.0 0.00 0.00 0.00 56 1017.7
20260505203905 63 23 1.0 3.0 0.00 0.00 0.00 57 1017.7
20260505203404 63 41 0.0 1.0 0.00 0.00 0.00 56 1017.7
20260505202904 63 42 1.0 2.0 0.00 0.00 0.00 55 1017.7
20260505202404 63 49 0.0 2.0 0.00 0.00 0.00 55 1017.7
20260505201904 63 34 1.0 2.0 0.00 0.00 0.00 55 1017.6
20260505201405 62 19 0.0 1.0 0.00 0.00 0.00 54 1017.5
20260505200903 63 30 1.0 1.0 0.00 0.00 0.00 53 1017.5
20260505200403 64 29 0.0 1.0 0.00 0.00 0.00 52 1017.4
20260505195903 65 87 0.0 1.0 0.00 0.00 0.00 51 1017.3
20260505195405 65 89 0.0 1.0 0.00 0.00 0.00 49 1017.3
20260505194904 64 59 1.0 1.0 0.00 0.00 0.00 50 1017.2
20260505194403 64 64 0.0 1.0 0.00 0.00 0.00 51 1017.1
20260505193906 64 111 0.0 1.0 0.00 0.00 0.00 51 1017.1
20260505193405 64 111 0.0 1.0 0.00 0.00 0.00 51 1017.0
20260505192403 64 117 0.0 1.0 0.00 0.00 0.00 52 1017.0
20260505191904 64 120 0.0 1.0 0.00 0.00 0.00 52 1017.0
20260505191404 64 112 0.0 1.0 0.00 0.00 0.00 52 1017.0
20260505190904 64 39 0.0 1.0 0.00 0.00 0.00 53 1016.9
20260505185904 64 39 0.0 0.0 0.00 0.00 0.00 53 1016.9
20260505185405 65 39 0.0 2.0 0.00 0.00 0.00 54 1016.8
20260505184905 65 39 1.0 2.0 0.00 0.00 0.00 53 1016.8
20260505184405 65 48 1.0 2.0 0.00 0.00 0.00 53 1016.7
20260505183903 65 54 0.0 1.0 0.00 0.00 0.00 53 1016.7
20260505183404 65 90 0.0 0.0 0.00 0.00 0.00 53 1016.7
20260505182904 65 90 0.0 0.0 0.00 0.00 0.00 54 1016.7
20260505182403 66 90 0.0 0.0 0.00 0.00 0.00 52 1016.7
20260505181905 66 90 0.0 0.0 0.00 0.00 0.00 52 1016.6
20260505181403 66 88 0.0 2.0 0.00 0.00 0.00 52 1016.5
20260505180405 66 94 0.0 1.0 0.00 0.00 0.00 53 1016.4
20260505175904 66 94 0.0 1.0 0.00 0.00 0.00 52 1016.5
20260505175404 67 94 0.0 1.0 0.00 0.00 0.00 52 1016.4
20260505174905 67 94 0.0 0.0 0.00 0.00 0.00 51 1016.4
20260505174405 68 94 0.0 2.0 0.00 0.00 0.00 51 1016.4
20260505173904 68 94 0.0 2.0 0.00 0.00 0.00 50 1016.4
20260505173404 69 124 0.0 2.0 0.00 0.00 0.00 50 1016.4
20260505172903 69 108 0.0 3.0 0.00 0.00 0.00 51 1016.3
20260505172405 69 82 0.0 3.0 0.00 0.00 0.00 50 1016.4
20260505171904 70 104 0.0 3.0 0.00 0.00 0.00 49 1016.3
20260505171404 71 106 0.0 3.0 0.00 0.00 0.00 47 1016.3
20260505165903 73 101 0.0 3.0 0.00 0.00 0.00 46 1016.4
20260505165403 74 216 1.0 5.0 0.00 0.00 0.00 44 1016.4
20260505164903 75 131 0.0 5.0 0.00 0.00 0.00 44 1016.4
20260505164403 76 230 1.0 3.0 0.00 0.00 0.00 43 1016.4
20260505163903 76 179 1.0 3.0 0.00 0.00 0.00 44 1016.4
20260505162905 77 216 1.0 5.0 0.00 0.00 0.00 43 1016.5
20260505162404 77 135 0.0 5.0 0.00 0.00 0.00 44 1016.4
20260505161904 78 122 1.0 5.0 0.00 0.00 0.00 43 1016.4
20260505161405 78 164 1.0 3.0 0.00 0.00 0.00 43 1016.4
20260505160904 79 86 2.0 3.0 0.00 0.00 0.00 42 1016.5
20260505160404 79 178 1.0 5.0 0.00 0.00 0.00 41 1016.4
20260505152903 81 208 2.0 6.0 0.00 0.00 0.00 36 1016.5
20260505152404 81 204 2.0 7.0 0.00 0.00 0.00 36 1016.6
20260505151904 81 200 3.0 7.0 0.00 0.00 0.00 35 1016.6
20260505151404 81 192 3.0 7.0 0.00 0.00 0.00 35 1016.6
20260505150904 81 207 3.0 7.0 0.00 0.00 0.00 34 1016.6
20260505150405 81 207 2.0 7.0 0.00 0.00 0.00 35 1016.6
20260505140403 81 224 3.0 10.0 0.00 0.00 0.00 37 1016.8
20260505124904 82 209 2.0 7.0 0.00 0.00 0.00 37 1017.2
20260505124405 82 201 2.0 7.0 0.00 0.00 0.00 34 1017.4
20260505123904 82 206 3.0 7.0 0.00 0.00 0.00 36 1017.3
20260505123403 82 210 3.0 7.0 0.00 0.00 0.00 35 1017.3
20260505122904 83 201 3.0 6.0 0.00 0.00 0.00 37 1017.5
20260505122404 82 214 2.0 6.0 0.00 0.00 0.00 38 1017.4
20260505120403 82 212 2.0 7.0 0.00 0.00 0.00 37 1017.7
20260505115404 82 222 2.0 8.0 0.00 0.00 0.00 36 1017.9
20260505114404 81 220 2.0 7.0 0.00 0.00 0.00 36 1017.9
20260505113906 81 245 3.0 7.0 0.00 0.00 0.00 35 1017.9
20260505113403 81 255 1.0 7.0 0.00 0.00 0.00 35 1017.9
20260505112904 82 289 3.0 6.0 0.00 0.00 0.00 34 1018.0
20260505112404 81 267 2.0 7.0 0.00 0.00 0.00 36 1018.0
20260505111404 81 243 3.0 7.0 0.00 0.00 0.00 34 1018.0
20260505110904 81 262 1.0 6.0 0.00 0.00 0.00 37 1018.1
20260505110404 81 226 2.0 7.0 0.00 0.00 0.00 38 1018.1
20260505101904 79 244 2.0 6.0 0.00 0.00 0.00 41 1018.4
20260505100906 78 250 2.0 8.0 0.00 0.00 0.00 42 1018.5
20260505100403 78 241 2.0 8.0 0.00 0.00 0.00 40 1018.6
20260505095903 78 269 3.0 8.0 0.00 0.00 0.00 42 1018.6
20260505095404 78 249 1.0 9.0 0.00 0.00 0.00 44 1018.6
20260505094905 77 295 2.0 9.0 0.00 0.00 0.00 43 1018.7
20260505094404 77 262 2.0 8.0 0.00 0.00 0.00 44 1018.7
20260505093904 77 252 4.0 8.0 0.00 0.00 0.00 41 1018.8
20260505093406 77 246 2.0 7.0 0.00 0.00 0.00 45 1018.8
20260505092905 76 231 2.0 7.0 0.00 0.00 0.00 47 1019.0
20260505092403 76 243 2.0 7.0 0.00 0.00 0.00 46 1019.1
20260505091904 76 238 2.0 6.0 0.00 0.00 0.00 45 1019.1
20260505091405 76 273 2.0 6.0 0.00 0.00 0.00 46 1019.2
20260505090903 75 270 3.0 7.0 0.00 0.00 0.00 47 1019.1
20260505090407 75 246 2.0 8.0 0.00 0.00 0.00 48 1019.2
20260505085404 74 296 2.0 5.0 0.00 0.00 0.00 47 1019.4
20260505083904 73 236 1.0 5.0 0.00 0.00 0.00 51 1019.4
20260505083404 72 236 1.0 5.0 0.00 0.00 0.00 51 1019.4
20260505082904 72 229 2.0 5.0 0.00 0.00 0.00 50 1019.4
20260505080904 72 242 1.0 6.0 0.00 0.00 0.00 50 1019.5
20260505080405 71 234 2.0 6.0 0.00 0.00 0.00 50 1019.5
20260505075903 72 245 1.0 3.0 0.00 0.00 0.00 49 1019.5
20260505075405 71 241 2.0 3.0 0.00 0.00 0.00 48 1019.6
20260505074904 71 307 1.0 3.0 0.00 0.00 0.00 50 1019.6
20260505074404 71 231 2.0 5.0 0.00 0.00 0.00 49 1019.6
20260505073904 71 236 2.0 5.0 0.00 0.00 0.00 49 1019.6
20260505073404 71 226 1.0 5.0 0.00 0.00 0.00 49 1019.6
20260505072905 70 250 1.0 3.0 0.00 0.00 0.00 49 1019.6
20260505072403 70 254 1.0 3.0 0.00 0.00 0.00 49 1019.7
20260505071905 70 243 1.0 3.0 0.00 0.00 0.00 51 1019.8